This demonstration page uses our WeatherBlox Daily Observations layout. Learn more.

40.92945, -100.16068

Hourly Observations for January 12, 2017

Temp ( °F °C ) Dew Point ( °F °C ) Humidity (%) Winds ( mph kmh ) Pressure ( in mb ) Visibility ( mi km ) Precip ( " mm )
12:15 am 00:15 Clear 10 -12.1 6 -14.7 81 81 N 6 9 30.18 1022 10 16.0934 0 0
12:35 am 00:35 Clear 10 -12.3 5 -14.8 82 82 Calm 30.18 1022 10 16.0934 0 0
12:55 am 00:55 Clear 10 -12.5 5 -15 82 82 Calm 30.18 1022 10 16.0934 0 0
1:15 am 01:15 Clear 9 -12.7 4 -15.4 80 80 N 3 6 30.21 1023 10 16.0934 0 0
1:35 am 01:35 Clear 8 -13.3 4 -15.8 82 82 NNE 5 7 30.21 1023 10 16.0934 0 0
1:55 am 01:55 Clear 8 -13.5 3 -16 82 82 N 3 6 30.21 1023 10 16.0934 0 0
2:15 am 02:15 Clear 8 -13.5 4 -15.8 83 83 Calm 30.27 1025 10 16.0934 0 0
2:35 am 02:35 Mostly Cloudy 9 -12.9 5 -15.1 84 84 Calm 30.24 1024 10 16.0934 0 0
2:55 am 02:55 Mostly Cloudy 9 -12.8 5 -15.2 82 82 N 5 7 30.21 1023 10 16.0934 0 0
3:15 am 03:15 Partly Cloudy 9 -13 4 -15.4 82 82 NE 5 7 30.24 1024 10 16.0934 0 0
3:35 am 03:35 Clear 8 -13.4 4 -15.7 83 83 Calm 30.24 1024 10 16.0934 0 0
3:55 am 03:55 Clear 7 -13.8 3 -16.2 82 82 NNE 5 7 30.3 1026 10 16.0934 0 0
4:15 am 04:15 Clear 7 -14.1 2 -16.5 82 82 NNE 5 7 30.27 1025 10 16.0934 0 0
4:35 am 04:35 Clear 6 -14.6 2 -16.8 84 84 Calm 30.3 1026 10 16.0934 0 0
4:55 am 04:55 Clear 5 -15 1 -17.3 83 83 Calm 30.3 1026 10 16.0934 0 0
5:15 am 05:15 Clear 5 -15.1 1 -17.5 82 82 N 3 6 30.3 1026 10 16.0934 0 0
5:35 am 05:35 Clear 5 -15 1 -17.3 83 83 Calm 30.3 1026 10 16.0934 0 0
5:55 am 05:55 Clear 5 -15 1 -17.3 83 83 Calm 30.3 1026 10 16.0934 0 0
6:15 am 06:15 Clear 5 -14.9 1 -17.1 83 83 Calm 30.3 1026 10 16.0934 0 0
6:35 am 06:35 Clear 6 -14.5 2 -16.8 83 83 Calm 30.33 1027 10 16.0934 0 0
6:55 am 06:55 Clear 6 -14.6 1 -17 82 82 Calm 30.33 1027 10 16.0934 0 0
7:15 am 07:15 Clear 5 -15.1 1 -17.5 82 82 NW 5 7 30.36 1028 10 16.0934 0 0
7:35 am 07:35 Clear 4 -15.5 0 -17.9 82 82 N 6 9 30.39 1029 10 16.0934 0 0
7:55 am 07:55 Clear 4 -15.8 -1 -18.3 81 81 N 3 6 30.42 1030 10 16.0934 0 0
8:15 am 08:15 Sunny 3 -16 -1 -18.5 81 81 NNW 3 6 30.42 1030 10 16.0934 0 0
8:35 am 08:35 Sunny 4 -15.5 0 -17.9 82 82 NW 3 6 30.45 1031 10 16.0934 0 0
8:55 am 08:55 Sunny 6 -14.2 2 -16.5 83 83 NNW 5 7 30.42 1030 10 16.0934 0 0
9:15 am 09:15 Sunny 8 -13.1 4 -15.6 82 82 NW 5 7 30.42 1030 10 16.0934 0 0
9:35 am 09:35 Sunny 10 -12.3 5 -15 80 80 WNW 5 7 30.45 1031 10 16.0934 0 0
9:55 am 09:55 Sunny 12 -11.3 6 -14.4 78 78 NW 6 9 30.45 1031 10 16.0934 0 0
10:15 am 10:15 Sunny 13 -10.7 7 -14.1 76 76 WNW 7 11 30.48 1032 10 16.0934 0 0
10:35 am 10:35 Sunny 13 -10.5 7 -14.1 75 75 WNW 8 13 30.48 1032 10 16.0934 0 0
10:55 am 10:55 Sunny 15 -9.7 7 -13.9 72 72 WNW 10 17 30.5 1033 10 16.0934 0 0
11:15 am 11:15 Sunny 15 -9.2 7 -13.7 70 70 WNW 9 15 30.5 1033 10 16.0934 0 0
11:35 am 11:35 Sunny 17 -8.5 7 -14 65 65 WNW 9 15 30.5 1033 10 16.0934 0 0
11:55 am 11:55 Sunny 16 -8.7 7 -13.9 66 66 NW 6 9 30.5 1033 10 16.0934 0 0
12:15 pm 12:15 Sunny 18 -7.7 9 -12.9 67 67 NW 7 11 30.48 1032 10 16.0934 0 0
12:35 pm 12:35 Sunny 18 -7.6 9 -12.6 68 68 NW 7 11 30.48 1032 10 16.0934 0 0
12:55 pm 12:55 Sunny 20 -6.8 10 -12.1 66 66 NW 7 11 30.48 1032 10 16.0934 0 0
1:15 pm 13:15 Sunny 20 -6.6 10 -12.1 65 65 NW 9 15 30.45 1031 10 16.0934 0 0
1:35 pm 13:35 Sunny 20 -6.5 11 -11.7 67 67 NW 7 11 30.48 1032 10 16.0934 0 0
1:55 pm 13:55 Sunny 20 -6.4 11 -11.5 67 67 NNW 7 11 30.45 1031 10 16.0934 0 0
2:15 pm 14:15 Sunny 22 -5.7 11 -11.4 65 65 N 8 13 30.48 1032 10 16.0934 0 0
2:35 pm 14:35 Sunny 22 -5.7 11 -11.4 65 65 N 7 11 30.48 1032 10 16.0934 0 0
2:55 pm 14:55 Sunny 22 -5.7 11 -11.4 65 65 N 5 7 30.48 1032 10 16.0934 0 0
3:15 pm 15:15 Partly Cloudy 22 -5.5 12 -11.1 65 65 N 7 11 30.5 1033 10 16.0934 0 0
3:35 pm 15:35 Partly Cloudy 22 -5.5 12 -11.1 65 65 N 7 11 30.5 1033 10 16.0934 0 0
3:55 pm 15:55 Mostly Cloudy 22 -5.5 10 -12 61 61 N 7 11 30.5 1033 10 16.0934 0 0
4:15 pm 16:15 Mostly Cloudy 22 -5.5 10 -12.1 60 60 NNE 8 13 30.5 1033 10 16.0934 0 0
4:35 pm 16:35 Partly Cloudy 22 -5.5 10 -12.2 60 60 NNE 5 7 30.5 1033 10 16.0934 0 0
4:55 pm 16:55 Sunny 22 -5.7 10 -12.1 61 61 NE 5 7 30.53 1034 10 16.0934 0 0
5:15 pm 17:15 Sunny 21 -6.1 11 -11.9 64 64 NE 6 9 30.53 1034 10 16.0934 0 0
5:35 pm 17:35 Clear 20 -6.6 11 -11.7 67 67 NNE 6 9 30.53 1034 10 16.0934 0 0
5:55 pm 17:55 Clear 19 -7.1 11 -11.6 71 71 ENE 5 7 30.53 1034 10 16.0934 0 0
6:15 pm 18:15 Clear 19 -7.1 12 -11.2 73 73 Calm 30.53 1034 10 16.0934 0 0
6:35 pm 18:35 Partly Cloudy 20 -6.7 12 -11.1 71 71 E 3 6 30.56 1035 10 16.0934 0 0
6:55 pm 18:55 Partly Cloudy 20 -6.6 12 -11.3 70 70 E 5 7 30.56 1035 10 16.0934 0 0
7:15 pm 19:15 Clear 20 -6.5 11 -11.8 66 66 ESE 6 9 30.56 1035 10 16.0934 0 0
7:35 pm 19:35 Clear 20 -6.5 11 -11.5 68 68 SE 7 11 30.56 1035 10 16.0934 0 0
7:55 pm 19:55 Partly Cloudy 20 -6.6 11 -11.5 68 68 ESE 7 11 30.56 1035 10 16.0934 0 0
8:15 pm 20:15 Partly Cloudy 20 -6.6 11 -11.6 68 68 ESE 5 7 30.56 1035 10 16.0934 0 0
8:35 pm 20:35 Mostly Cloudy 20 -6.6 11 -11.6 68 68 ESE 6 9 30.56 1035 10 16.0934 0 0
8:55 pm 20:55 Partly Cloudy 20 -6.7 11 -11.4 70 70 ENE 5 7 30.56 1035 10 16.0934 0 0
9:15 pm 21:15 Clear 19 -7 12 -11.1 73 73 NE 3 6 30.56 1035 10 16.0934 0 0
9:35 pm 21:35 Clear 19 -7 12 -11.1 73 73 E 3 6 30.56 1035 10 16.0934 0 0
9:55 pm 21:55 Clear 19 -7 12 -11.3 72 72 E 3 6 30.56 1035 10 16.0934 0 0
10:55 pm 22:55 Clear 19 -7.2 12 -11.3 73 73 E 3 6 30.56 1035 10 16.0934 0 0
11:15 pm 23:15 Partly Cloudy 19 -7.3 11 -11.5 72 72 ESE 3 6 30.62 1037 10 16.0934 0 0
11:35 pm 23:35 Partly Cloudy 19 -7.3 11 -11.5 72 72 ESE 3 6 30.56 1035 10 16.0934 0 0
11:55 pm 23:55 Mostly Cloudy 19 -7 11 -11.6 70 70 ESE 6 9 30.59 1036 10 16.0934 0 0

Powered by AerisWeather